FALCON 9 R/B (55684 NORAD) Tracking and Keplerian Element Data

This shows tracking and keplerian element data for the satellite.

Feedback or suggestion? Click here.




ElementValue
Catalog55684
NameFALCON 9 R/B
Epoch Orbit21
Epoch Day61.45992542
Epoch Year2023
RAAN48.6578
Inclination27.0273
Eccentricity0.758724
Argument of Perigee171.6264
Mean Anonmoly219.4674
Mean Motion1.92461178
Decay Rate0.00010845
L11 55684U 23022B 23061.45992542 .00010845 00000+0 15729-2 0 9992
L22 55684 27.0273 48.6578 7587240 171.6264 219.4674 1.92461178 214



Live tracking and technical data element details for FALCON 9 R/B (NORAD 55684). FALCON 9 R/B can be tracked NOW for your location showing map with azimuth and elevation plus other details from your city location.







IsCatalogInMostPopularTable: catalog: 55684, numindb: 7
Update: records affected: 1



GetName: 55684 FALCON 9 R/B

Hit Count: updated at: Tue, 28 Mar 2023 02:29:23 GMT